Regional Weather Roundup
Issued by NWS

Home | Current Version | Previous Version | Graphics & Text | Print | Product List | Glossary On
Versions: 1 2 3 4 5 6 7 8 9 10 11 12 13 14 15 16 17 18 19 20 21 22 23 24 25 26 27 28 29 30 31 32 33 34 35 36 37 38 39 40 41 42 43 44 45 46 47 48 49 50
000
ASUS43 KIND 032259
RWRIN

WEATHER ROUNDUP FOR INDIANA
NATIONAL WEATHER SERVICE INDIANAPOLIS IN
700 PM EDT SUN MAY 03 2015

NOTE: "FAIR" INDICATES FEW OR NO CLOUDS BELOW 12,000 FEET WITH NO
SIGNIFICANT WEATHER AND/OR OBSTRUCTIONS TO VISIBILITY.

* - STATION DOES NOT REPORT WEATHER SUCH AS PRECIPITATION OR FOG.

+ - STATION NOT QUALITY CONTROLLED BY THE NATIONAL WEATHER SERVICE.
    USE DATA WITH CAUTION...ESPECIALLY DEWPOINT AND RELATIVE
    HUMIDITY OBSERVATIONS.

INZ001>003-010>013-019-020-040000-
NORTHWEST INDIANA

CITY           SKY/WX    TMP DP  RH WIND       PRES   REMARKS
GARY /AIRPORT/ PTSUNNY   81 N/A N/A S14       29.93R

$$

LMZ046-743>745-040000-
SOUTHERN LAKE MICHIGAN

STATION/POSITION TIME  TEMP    WIND        PRES    WAVE
                       AIR SEA DIR/SP/G            HT
                 (UTC) (F)     (DEG/KT/KT) (MB)    (FT)
BURNS HARBOR     2200   78     190/ 13/ 17 1013.9S
MICHIGAN CITY    2200   78     160/ 10/ 14   N/A
5NW MICH CITY    2200   65 51  180/  8/ 12   N/A     1

$$

INZ004-005-014>016-021>024-040000-
NORTH CENTRAL INDIANA

CITY           SKY/WX    TMP DP  RH WIND       PRES   REMARKS
GOSHEN         SUNNY     76  46  34 SW14      29.98S
SOUTH BEND     PTSUNNY   77  43  29 S13       29.97S

$$

INZ006>009-017-018-025>027-040000-
NORTHEAST INDIANA

CITY           SKY/WX    TMP DP  RH WIND       PRES   REMARKS
ANGOLA *+      MOSUNNY   75  70  83 SW6       30.00S
FORT WAYNE     PTSUNNY   75  47  36 SW13      30.02S

$$

INZ028-029-035-036-043>045-051>053-040000-
WEST CENTRAL INDIANA

CITY           SKY/WX    TMP DP  RH WIND       PRES   REMARKS
GREENCASTLE +  MOSUNNY   72  37  28 S9G16     30.02S
LAFAYETTE      MOSUNNY   76  44  32 S12G20    29.98R
TERRE HAUTE    PTSUNNY   77  46  33 S12       30.00F

$$

INZ030>032-037>040-046>048-054>057-064-065-040000-
CENTRAL INDIANA

CITY           SKY/WX    TMP DP  RH WIND       PRES   REMARKS
GREENWOOD *+   SUNNY     77  39  25 SW12      30.03S
INDIANAPOLIS   PTSUNNY   74  46  36 SW12      30.01R
-EAGLE CREEK   MOSUNNY   76  43  30 SW9G21    30.01S
MT COMFORT *+  SUNNY     77  21  12 SW12      30.03S
SHELBYVILLE    SUNNY     78  48  34 S13       30.02S

$$

INZ033-034-041-042-049-050-058-059-040000-
EAST CENTRAL INDIANA

CITY           SKY/WX    TMP DP  RH WIND       PRES   REMARKS
MUNCIE         MOSUNNY   77  47  34 SW14      30.02F

$$

INZ060-061-067>069-081>083-085>088-040000-
SOUTHWEST INDIANA

CITY           SKY/WX    TMP DP  RH WIND       PRES   REMARKS
EVANSVILLE     SUNNY     78  48  34 S12       30.03F
HUNTINGBURG *+ MOSUNNY   77  48  36 S14       30.04S

$$

INZ062-063-066-070>080-084-089>092-040000-
SOUTH CENTRAL AND SOUTHEAST INDIANA

CITY           SKY/WX    TMP DP  RH WIND       PRES   REMARKS
BLOOMINGTON    MOSUNNY   76  46  34 S7        30.03S
MADISON *+     SUNNY     77  37  24 S8        30.08S
SEYMOUR +      SUNNY     77  50  38 S10       30.04R

$$




USA.gov is the U.S. government's official web portal to all federal, state and local government web resources and services.